Total_Precipitation_Accumulation
0.26 0.25 0.20 0.17 0.22 0.30 0.16 0.11 0.10 0.14 0.06 0.02 0.03 0.04 0.08 0.02 0.00 0.00 0.01 0.05 0.19 0.19 0.22 0.20 0.22 0.27 0.30 0.31 0.38 0.45 0.43 0.31 0.22
0.52 0.43 0.25 0.15 0.22 0.45 0.42 0.16 0.13 0.12 0.09 0.02 0.03 0.07 0.04 0.00 0.00 0.00 0.00 0.04 0.09 0.08 0.08 0.15 0.18 0.26 0.29 0.30 0.30 0.31 0.39 0.50 0.45
0.54 0.49 0.26 0.18 0.20 0.45 0.43 0.25 0.11 0.11 0.18 0.16 0.13 0.07 0.02 0.00 0.00 0.00 0.00 0.00 0.03 0.08 0.08 0.15 0.19 0.16 0.19 0.22 0.17 0.18 0.25 0.33 0.38
0.38 0.43 0.30 0.25 0.24 0.36 0.34 0.35 0.18 0.12 0.21 0.30 0.14 0.04 0.01 0.00 0.00 0.00 0.00 0.00 0.02 0.13 0.22 0.19 0.18 0.20 0.24 0.24 0.23 0.22 0.22 0.20 0.18
0.15 0.16 0.25 0.38 0.34 0.33 0.33 0.30 0.29 0.25 0.24 0.25 0.25 0.05 0.01 0.01 0.00 0.00 0.00 0.01 0.16 0.31 0.25 0.17 0.16 0.20 0.26 0.27 0.30 0.32 0.28 0.23 0.24
0.02 0.01 0.04 0.14 0.25 0.31 0.31 0.30 0.18 0.15 0.10 0.05 0.06 0.09 0.02 0.04 0.03 0.01 0.01 0.11 0.26 0.19 0.13 0.13 0.14 0.13 0.15 0.20 0.23 0.23 0.24 0.28 0.27
0.03 0.02 0.02 0.07 0.16 0.18 0.24 0.28 0.11 0.01 0.00 0.00 0.03 0.05 0.08 0.08 0.04 0.02 0.05 0.13 0.18 0.16 0.16 0.18 0.17 0.15 0.13 0.14 0.17 0.17 0.20 0.27 0.31
0.02 0.02 0.03 0.11 0.08 0.11 0.08 0.08 0.02 0.00 0.01 0.02 0.03 0.09 0.11 0.07 0.06 0.06 0.10 0.12 0.15 0.12 0.13 0.13 0.15 0.14 0.12 0.10 0.11 0.15 0.18 0.24 0.29
0.16 0.07 0.08 0.12 0.08 0.12 0.11 0.08 0.02 0.01 0.02 0.03 0.04 0.06 0.07 0.05 0.04 0.04 0.04 0.04 0.07 0.07 0.09 0.10 0.13 0.15 0.14 0.12 0.15 0.19 0.21 0.21 0.21
0.26 0.27 0.27 0.22 0.16 0.12 0.13 0.16 0.18 0.14 0.09 0.08 0.07 0.05 0.05 0.05 0.04 0.03 0.03 0.03 0.05 0.07 0.10 0.11 0.14 0.21 0.22 0.19 0.20 0.17 0.15 0.14 0.14
0.49 0.42 0.41 0.31 0.25 0.23 0.23 0.33 0.35 0.30 0.21 0.13 0.08 0.06 0.08 0.13 0.09 0.08 0.11 0.08 0.06 0.07 0.09 0.12 0.20 0.34 0.33 0.29 0.37 0.37 0.24 0.21 0.18
0.33 0.53 0.54 0.43 0.44 0.61 0.67 0.80 0.70 0.58 0.39 0.21 0.13 0.13 0.11 0.10 0.17 0.19 0.16 0.13 0.11 0.09 0.10 0.16 0.15 0.16 0.26 0.49 0.64 0.57 0.51 0.40 0.35
0.25 0.21 0.24 0.38 0.50 0.57 0.55 0.62 0.77 0.79 0.72 0.47 0.31 0.28 0.26 0.23 0.21 0.20 0.15 0.12 0.11 0.12 0.10 0.18 0.20 0.16 0.17 0.34 0.63 0.76 0.70 0.45 0.39
0.20 0.24 0.29 0.35 0.39 0.43 0.48 0.61 0.65 0.74 0.66 0.56 0.63 0.81 0.81 0.58 0.43 0.31 0.20 0.17 0.16 0.13 0.16 0.19 0.27 0.34 0.31 0.24 0.46 0.70 0.83 0.76 0.62
0.25 0.25 0.28 0.36 0.35 0.34 0.39 0.47 0.53 0.51 0.51 0.55 0.50 0.48 0.60 0.81 0.85 0.76 0.68 0.49 0.35 0.28 0.27 0.30 0.31 0.33 0.30 0.30 0.31 0.46 0.74 0.95 0.92
0.29 0.26 0.22 0.20 0.17 0.18 0.23 0.33 0.35 0.28 0.41 0.55 0.27 0.21 0.19 0.16 0.13 0.24 0.37 0.40 0.35 0.33 0.37 0.43 0.47 0.52 0.61 0.50 0.42 0.46 0.63 0.82 0.98
0.67 0.49 0.43 0.32 0.32 0.29 0.24 0.25 0.28 0.28 0.47 0.64 0.50 0.24 0.12 0.09 0.09 0.14 0.17 0.21 0.40 0.40 0.40 0.46 0.47 0.48 0.52 0.68 0.65 0.46 0.62 0.87 1.16
1.33 1.23 1.19 1.11 0.87 0.65 0.62 0.53 0.52 0.54 0.51 0.61 0.77 0.45 0.22 0.18 0.18 0.16 0.21 0.27 0.36 0.45 0.63 0.75 0.59 0.52 0.56 0.68 0.71 0.64 0.54 0.70 0.97
2.19 2.32 2.17 2.01 1.64 1.55 1.66 1.67 1.48 1.46 1.13 1.06 0.99 0.93 0.67 0.56 0.41 0.30 0.34 0.48 1.09 1.37 1.21 1.08 1.26 1.29 1.04 1.02 1.12 1.25 1.21 0.97 1.13
2.00 2.29 2.74 2.77 2.89 2.57 2.23 2.23 2.22 2.12 2.09 1.85 1.64 1.44 1.34 1.38 1.27 0.85 0.63 0.56 0.97 0.83 0.77 0.75 0.72 1.05 1.45 1.68 1.43 1.03 0.95 1.18 1.35